Weather in Khrabrovo

Russia / Kaliningrad Oblast     54°53′45″N   20°34′26″E
temp.,
°C
wind,
m/s
gust,
m/s
humid.,
%
clouds,
%
prec.,
mm/h
press.,
hPa
HPBL,
m
29 june, wed
wed2923:00+18wsw5693100 1.4 1020261
02:00+18wnw6795100 1.7 1019311
05:00+18nw4598100 0.4 1018307
08:00+18nw4494100 0.8 1018246
11:00+18nw4490100 0.0 1018254
14:00+18nw339097 0.0 1018200
17:00+19nw238989 0.0 1017167
20:00+19nw448996 0.0 1016289
30 june, thu
thu3023:00+18n23885 0.0 101671
02:00+18nnw1186100 0.0 101623
05:00+18nw1185100 0.0 101623
08:00+18n2282100 0.0 1016107
11:00+18ene3387100 0.0 1016177
14:00+19nne3286100 0.0 1016152
17:00+19ne558899 0.0 101598
20:00+20ne57879 2.1 101577
1 july, fri
fri123:00+21e6992100 2.2 101484
02:00+19s2297100 7.2 101613
05:00+19ese5696100 3.4 101586
08:00+21se8119087 3.4 1015207
11:00+23se81180100 0.0 1015123
14:00+25se710705 0.0 1015132
17:00+25se811700 0.0 1014131
20:00+24ese913733 0.0 1013152
2 july, sat
sat223:00+20ssw5690100 1.1 101762
02:00+20sse61190100 1.2 1016177
05:00+19wsw4494100 0.2 101796
08:00+19w6896100 1.8 1018270
11:00+18wnw7993100 0.8 1020410
14:00+18wnw91088100 1.0 1021609
17:00+18wnw81086100 0.1 1022618
20:00+18wnw797911 0.1 1022537
3 july, sun
sun323:00+18wnw78830 0.0 1022452
02:00+17wnw56810 0.0 1022314
05:00+17wsw67820 0.0 1022259
08:00+18w66840 0.0 1021316
11:00+19wnw56790 0.0 1022214
14:00+19nw45760 0.0 1022199
17:00+19nw34740 0.0 1021112
20:00+19nw22725 0.0 102028